IBE07MM LEMD-EGLL

Flight info

Callsign IBE07MM
Flight time 1h 41m
Altitude 40000
Route SIE N858 DGO N867 MAPAX DCT NENEM DCT YURZI DCT ERIGA DCT ARTIV DCT REVTU UP87 ROXOG
Aircraft A359/H-SDE2E3GHIJ3J4J5LM1ORWXY/LB1D1

Departure

Time 2026-05-06 19:50
Airport Adolfo Suárez Madrid–Barajas Airport (LEMD)

Arrival

Time 2026-05-06 21:31
Airport London Heathrow Airport (EGLL)
Time Latitude Longitude Altitude Speed Heading
2026-05-06 19:21 40.49058 -3.56874 1982 ft 0 kts 90°
2026-05-06 19:21 40.49057 -3.56878 1983 ft 0 kts 89°
2026-05-06 19:41 40.49057 -3.56908 1984 ft 4 kts 89°
2026-05-06 19:42 40.49057 -3.56935 1985 ft 3 kts 86°
2026-05-06 19:42 40.49051 -3.56960 1984 ft 3 kts 74°
2026-05-06 19:42 40.49053 -3.56991 1986 ft 4 kts 123°
2026-05-06 19:42 40.49066 -3.57014 1983 ft 1 kts 128°
2026-05-06 19:43 40.49058 -3.56993 1986 ft 4 kts 112°
2026-05-06 19:43 40.49041 -3.56979 1985 ft 4 kts 174°
2026-05-06 19:43 40.49028 -3.56985 1987 ft 4 kts 229°
2026-05-06 19:43 40.49029 -3.56998 1988 ft 4 kts 249°
2026-05-06 19:44 40.49013 -3.56998 1989 ft 1 kts 180°
2026-05-06 19:46 40.48995 -3.56998 1988 ft 6 kts 180°
2026-05-06 19:47 40.48923 -3.56999 1985 ft 14 kts 180°
2026-05-06 19:47 40.48809 -3.57001 1985 ft 17 kts 185°
2026-05-06 19:47 40.48773 -3.57090 1990 ft 12 kts 267°
2026-05-06 19:47 40.48785 -3.57186 1991 ft 10 kts 311°
2026-05-06 19:48 40.48884 -3.57224 1991 ft 18 kts 360°
2026-05-06 19:48 40.49011 -3.57248 1994 ft 18 kts 324°
2026-05-06 19:48 40.49106 -3.57364 1994 ft 19 kts 317°
2026-05-06 19:48 40.49218 -3.57449 1994 ft 20 kts 357°
2026-05-06 19:49 40.49403 -3.57452 1991 ft 43 kts 359°
2026-05-06 19:49 40.49936 -3.57455 1994 ft 109 kts 360°
2026-05-06 19:49 40.50888 -3.57462 2004 ft 163 kts
2026-05-06 19:49 40.52070 -3.57464 2591 ft 166 kts 359°
2026-05-06 19:50 40.53203 -3.57492 3375 ft 162 kts 359°
2026-05-06 19:50 40.54352 -3.57512 3986 ft 169 kts
2026-05-06 19:50 40.55513 -3.57270 4579 ft 170 kts 15°
2026-05-06 19:50 40.56659 -3.56850 5160 ft 174 kts 17°
2026-05-06 19:51 40.57889 -3.56380 5479 ft 197 kts 17°
2026-05-06 19:51 40.59300 -3.55850 5754 ft 224 kts 16°
2026-05-06 19:51 40.60852 -3.55280 6335 ft 237 kts 16°
2026-05-06 19:51 40.62464 -3.54693 7095 ft 243 kts 16°
2026-05-06 19:52 40.64130 -3.54238 7927 ft 247 kts
2026-05-06 19:52 40.65859 -3.54037 8793 ft 251 kts
2026-05-06 19:52 40.67617 -3.53887 9662 ft 255 kts
2026-05-06 19:52 40.69400 -3.53736 10493 ft 259 kts
2026-05-06 19:53 40.71215 -3.53580 11316 ft 263 kts
2026-05-06 19:53 40.73051 -3.53419 12149 ft 267 kts
2026-05-06 19:53 40.74916 -3.53262 12980 ft 271 kts
2026-05-06 19:53 40.76811 -3.53374 13709 ft 280 kts 352°
2026-05-06 19:54 40.78813 -3.53718 14089 ft 300 kts 351°
2026-05-06 19:54 40.80949 -3.54127 14428 ft 321 kts 350°
2026-05-06 19:54 40.83227 -3.54560 14776 ft 339 kts 350°
2026-05-06 19:54 40.85613 -3.55006 15169 ft 356 kts 351°
2026-05-06 19:55 40.88099 -3.55467 15775 ft 364 kts 351°
2026-05-06 19:55 40.90630 -3.55933 16508 ft 369 kts 350°
2026-05-06 19:55 40.93187 -3.56403 17249 ft 373 kts 350°
2026-05-06 19:55 40.95741 -3.56873 18030 ft 377 kts 350°
2026-05-06 19:56 40.98355 -3.57355 18737 ft 382 kts 349°
2026-05-06 19:56 41.01004 -3.57844 19443 ft 386 kts 349°
2026-05-06 19:56 41.03672 -3.58338 20165 ft 390 kts 349°
2026-05-06 19:56 41.06372 -3.58837 20881 ft 394 kts 349°
2026-05-06 19:57 41.09097 -3.59343 21610 ft 397 kts 349°
2026-05-06 19:57 41.11854 -3.59823 22310 ft 401 kts 351°
2026-05-06 19:57 41.14669 -3.59879 23001 ft 409 kts
2026-05-06 19:57 41.17481 -3.59152 23651 ft 416 kts 14°
2026-05-06 19:58 41.20244 -3.57916 24209 ft 422 kts 18°
2026-05-06 19:58 41.22984 -3.56474 24797 ft 425 kts 20°
2026-05-06 19:58 41.25722 -3.54933 25357 ft 429 kts 21°
2026-05-06 19:58 41.28476 -3.53354 25925 ft 432 kts 21°
2026-05-06 19:59 41.31247 -3.51775 26516 ft 435 kts 21°
2026-05-06 19:59 41.34044 -3.50201 27109 ft 438 kts 21°
2026-05-06 19:59 41.36866 -3.48632 27662 ft 441 kts 21°
2026-05-06 19:59 41.39713 -3.47063 28192 ft 445 kts 20°
2026-05-06 20:00 41.42583 -3.45488 28720 ft 448 kts 20°
2026-05-06 20:00 41.45445 -3.43919 29222 ft 451 kts 20°
2026-05-06 20:00 41.48346 -3.42327 29734 ft 455 kts 20°
2026-05-06 20:00 41.50279 -3.41265 30051 ft 457 kts 20°
2026-05-06 20:01 41.53215 -3.39655 30483 ft 460 kts 20°
2026-05-06 20:01 41.56167 -3.38030 30898 ft 463 kts 20°
2026-05-06 20:01 41.60109 -3.35854 31398 ft 467 kts 20°
2026-05-06 20:01 41.62127 -3.34737 31659 ft 469 kts 20°
2026-05-06 20:02 41.66140 -3.32516 32149 ft 473 kts 20°
2026-05-06 20:02 41.69193 -3.30823 32513 ft 476 kts 20°
2026-05-06 20:02 41.71267 -3.29674 32768 ft 478 kts 20°
2026-05-06 20:02 41.74346 -3.27965 33151 ft 481 kts 20°
2026-05-06 20:03 41.77447 -3.26243 33505 ft 483 kts 20°
2026-05-06 20:03 41.80559 -3.24512 33829 ft 486 kts 20°
2026-05-06 20:03 41.83694 -3.22768 34115 ft 489 kts 20°
2026-05-06 20:03 41.86840 -3.21015 34375 ft 491 kts 20°
2026-05-06 20:04 41.90009 -3.19248 34640 ft 494 kts 20°
2026-05-06 20:04 41.93184 -3.17476 34989 ft 494 kts 20°
2026-05-06 20:04 41.96356 -3.15701 35394 ft 493 kts 20°
2026-05-06 20:04 41.99513 -3.13933 35768 ft 492 kts 20°
2026-05-06 20:05 42.02638 -3.12182 36056 ft 493 kts 20°
2026-05-06 20:05 42.05809 -3.10404 36340 ft 494 kts 20°
2026-05-06 20:05 42.08987 -3.08621 36637 ft 495 kts 20°
2026-05-06 20:05 42.12168 -3.06834 36926 ft 496 kts 20°
2026-05-06 20:06 42.15355 -3.05041 37220 ft 497 kts 20°
2026-05-06 20:06 42.18550 -3.03241 37516 ft 497 kts 20°
2026-05-06 20:06 42.21744 -3.01440 37788 ft 498 kts 20°
2026-05-06 20:06 42.24941 -2.99636 38100 ft 498 kts 20°
2026-05-06 20:07 42.28135 -2.97831 38356 ft 499 kts 20°
2026-05-06 20:07 42.31338 -2.96019 38624 ft 499 kts 20°
2026-05-06 20:07 42.34543 -2.94204 38839 ft 500 kts 20°
2026-05-06 20:07 42.37745 -2.92388 39061 ft 499 kts 20°
2026-05-06 20:08 42.40953 -2.90585 39284 ft 498 kts 19°
2026-05-06 20:08 42.44249 -2.89180 39467 ft 495 kts 10°
2026-05-06 20:08 42.47638 -2.88471 39654 ft 491 kts
2026-05-06 20:08 42.51045 -2.88368 39819 ft 489 kts 356°
2026-05-06 20:09 42.54442 -2.88443 39988 ft 489 kts 355°
2026-05-06 20:09 42.57851 -2.88606 40034 ft 490 kts 354°
2026-05-06 20:09 42.64649 -2.89016 40030 ft 489 kts 354°
2026-05-06 20:10 42.71451 -2.89417 40035 ft 489 kts 354°
2026-05-06 20:10 42.78251 -2.89786 40034 ft 489 kts 354°
2026-05-06 20:11 42.85054 -2.90142 40033 ft 489 kts 354°
2026-05-06 20:11 42.91860 -2.90502 40030 ft 489 kts 355°
2026-05-06 20:12 42.98655 -2.90856 40040 ft 489 kts 355°
2026-05-06 20:12 43.05453 -2.91212 40028 ft 488 kts 355°
2026-05-06 20:13 43.12249 -2.91571 40023 ft 488 kts 355°
2026-05-06 20:13 43.18999 -2.91928 40020 ft 488 kts 355°
2026-05-06 20:14 43.25782 -2.92288 40021 ft 488 kts 355°
2026-05-06 20:14 43.32496 -2.93272 40025 ft 484 kts 346°
2026-05-06 20:15 43.39077 -2.95178 40021 ft 483 kts 344°
2026-05-06 20:15 43.45623 -2.97230 40022 ft 482 kts 344°
2026-05-06 20:16 43.52163 -2.99302 40022 ft 482 kts 344°
2026-05-06 20:16 43.58695 -3.01361 40023 ft 482 kts 344°
2026-05-06 20:17 43.65233 -3.03416 40023 ft 482 kts 344°
2026-05-06 20:17 43.71777 -3.05444 40028 ft 482 kts 345°
2026-05-06 20:18 43.78349 -3.07325 40023 ft 482 kts 346°
2026-05-06 20:18 43.84916 -3.09181 40023 ft 482 kts 346°
2026-05-06 20:19 43.91480 -3.11061 40020 ft 481 kts 346°
2026-05-06 20:19 43.98035 -3.12957 40020 ft 481 kts 346°
2026-05-06 20:20 44.04671 -3.14261 40024 ft 485 kts 357°
2026-05-06 20:20 44.11383 -3.13154 40017 ft 488 kts
2026-05-06 20:21 44.17996 -3.11205 40021 ft 489 kts 10°
2026-05-06 20:21 44.24632 -3.09102 40023 ft 489 kts 11°
2026-05-06 20:22 44.31262 -3.07015 40023 ft 489 kts 10°
2026-05-06 20:22 44.37900 -3.04954 40017 ft 489 kts 10°
2026-05-06 20:23 44.44537 -3.02900 40021 ft 488 kts 10°
2026-05-06 20:23 44.51171 -3.00843 40020 ft 488 kts 10°
2026-05-06 20:24 44.57806 -2.98780 40028 ft 488 kts 10°
2026-05-06 20:24 44.64438 -2.96712 40021 ft 488 kts 11°
2026-05-06 20:25 44.71061 -2.94641 40020 ft 488 kts 11°
2026-05-06 20:25 44.77686 -2.92565 40020 ft 488 kts 11°
2026-05-06 20:26 44.84307 -2.90486 40018 ft 488 kts 11°
2026-05-06 20:26 44.90931 -2.88401 40018 ft 488 kts 11°
2026-05-06 20:27 44.97550 -2.86312 40026 ft 487 kts 11°
2026-05-06 20:27 45.04171 -2.84218 40022 ft 487 kts 11°
2026-05-06 20:28 45.10785 -2.82121 40021 ft 487 kts 11°
2026-05-06 20:28 45.17399 -2.80020 40020 ft 487 kts 11°
2026-05-06 20:29 45.24003 -2.77916 40018 ft 486 kts 11°
2026-05-06 20:29 45.30606 -2.75808 40012 ft 486 kts 11°
2026-05-06 20:30 45.40466 -2.72650 40012 ft 486 kts 11°
2026-05-06 20:31 45.47063 -2.70531 40010 ft 486 kts 11°
2026-05-06 20:31 45.53654 -2.68409 40009 ft 486 kts 11°
2026-05-06 20:32 45.60247 -2.66281 40010 ft 485 kts 11°
2026-05-06 20:32 45.66832 -2.64150 40009 ft 485 kts 11°
2026-05-06 20:33 45.73413 -2.62016 40010 ft 485 kts 11°
2026-05-06 20:33 45.79993 -2.59877 40009 ft 485 kts 11°
2026-05-06 20:34 45.86566 -2.57735 40007 ft 484 kts 11°
2026-05-06 20:34 45.93142 -2.55587 40007 ft 484 kts 11°
2026-05-06 20:35 45.99718 -2.53433 40004 ft 484 kts 11°
2026-05-06 20:35 46.06282 -2.51278 40004 ft 484 kts 11°
2026-05-06 20:36 46.12854 -2.49116 40003 ft 484 kts 11°
2026-05-06 20:36 46.19463 -2.47340 39994 ft 482 kts
2026-05-06 20:37 46.26123 -2.46162 40005 ft 482 kts
2026-05-06 20:37 46.32790 -2.45079 39989 ft 482 kts
2026-05-06 20:38 46.39457 -2.44003 40007 ft 482 kts
2026-05-06 20:38 46.46124 -2.42916 40004 ft 482 kts
2026-05-06 20:39 46.52745 -2.41826 40008 ft 482 kts
2026-05-06 20:39 46.59406 -2.40726 39993 ft 482 kts
2026-05-06 20:40 46.66070 -2.39623 40005 ft 482 kts
2026-05-06 20:40 46.72728 -2.38519 39991 ft 482 kts
2026-05-06 20:41 46.79391 -2.37411 39993 ft 482 kts
2026-05-06 20:41 46.86049 -2.36301 39994 ft 482 kts
2026-05-06 20:42 46.92692 -2.34915 39993 ft 482 kts
2026-05-06 20:42 46.99306 -2.33239 39989 ft 482 kts
2026-05-06 20:43 47.05925 -2.31580 39988 ft 482 kts
2026-05-06 20:43 47.12539 -2.29974 39992 ft 482 kts
2026-05-06 20:44 47.19162 -2.28386 39996 ft 482 kts
2026-05-06 20:44 47.25788 -2.26796 39990 ft 482 kts
2026-05-06 20:45 47.32413 -2.25199 39994 ft 482 kts
2026-05-06 20:45 47.39035 -2.23598 39997 ft 482 kts
2026-05-06 20:46 47.45663 -2.21991 39995 ft 483 kts
2026-05-06 20:46 47.52286 -2.20381 39990 ft 482 kts
2026-05-06 20:47 47.58912 -2.18766 39992 ft 482 kts
2026-05-06 20:47 47.65538 -2.17148 39993 ft 483 kts
2026-05-06 20:48 47.72115 -2.15536 39989 ft 483 kts
2026-05-06 20:48 47.78743 -2.13909 39996 ft 483 kts
2026-05-06 20:49 47.85372 -2.12277 39991 ft 483 kts
2026-05-06 20:49 47.91995 -2.10642 39988 ft 483 kts
2026-05-06 20:50 47.97504 -2.09279 39991 ft 483 kts
2026-05-06 20:50 48.04124 -2.07637 39991 ft 483 kts
2026-05-06 20:51 48.10748 -2.05990 39990 ft 483 kts
2026-05-06 20:51 48.17378 -2.04336 39990 ft 483 kts
2026-05-06 20:52 48.24004 -2.02680 39994 ft 483 kts
2026-05-06 20:52 48.30631 -2.01019 39993 ft 483 kts
2026-05-06 20:53 48.37273 -1.99350 39991 ft 483 kts
2026-05-06 20:53 48.43904 -1.97679 39998 ft 483 kts
2026-05-06 20:54 48.50537 -1.96004 39990 ft 483 kts
2026-05-06 20:54 48.57172 -1.94323 40020 ft 483 kts
2026-05-06 20:55 48.63805 -1.92638 40022 ft 483 kts
2026-05-06 20:55 48.70434 -1.90950 40014 ft 483 kts
2026-05-06 20:56 48.77070 -1.89256 40013 ft 483 kts
2026-05-06 20:56 48.83700 -1.87558 40009 ft 483 kts
2026-05-06 20:57 48.90289 -1.85936 40007 ft 483 kts
2026-05-06 20:57 48.96964 -1.84676 40004 ft 483 kts
2026-05-06 20:58 49.03629 -1.83485 40005 ft 483 kts
2026-05-06 20:58 49.10299 -1.82236 40008 ft 482 kts
2026-05-06 20:59 49.16962 -1.80948 40008 ft 482 kts
2026-05-06 20:59 49.23619 -1.79649 40006 ft 482 kts
2026-05-06 21:00 49.30281 -1.78347 40014 ft 482 kts
2026-05-06 21:00 49.36934 -1.77045 40015 ft 482 kts
2026-05-06 21:01 49.43602 -1.75737 40016 ft 483 kts
2026-05-06 21:01 49.50266 -1.74426 40017 ft 483 kts
2026-05-06 21:02 49.56932 -1.73111 40013 ft 483 kts
2026-05-06 21:02 49.63605 -1.71937 40024 ft 482 kts
2026-05-06 21:03 49.70258 -1.71435 39312 ft 473 kts
2026-05-06 21:03 49.73546 -1.71248 38039 ft 474 kts
2026-05-06 21:03 49.76856 -1.71045 36527 ft 478 kts
2026-05-06 21:03 49.80173 -1.70812 35503 ft 472 kts
2026-05-06 21:04 49.83365 -1.70563 34858 ft 459 kts
2026-05-06 21:04 49.86498 -1.70302 34385 ft 443 kts
2026-05-06 21:04 49.89526 -1.70042 33896 ft 430 kts
2026-05-06 21:04 49.92511 -1.69787 33385 ft 431 kts
2026-05-06 21:05 49.95495 -1.69533 32893 ft 429 kts
2026-05-06 21:05 49.98481 -1.69208 32438 ft 431 kts
2026-05-06 21:05 50.01419 -1.68322 31957 ft 430 kts 13°
2026-05-06 21:05 50.04276 -1.67038 31477 ft 427 kts 15°
2026-05-06 21:06 50.07116 -1.65692 31012 ft 424 kts 15°
2026-05-06 21:06 50.09932 -1.64341 30534 ft 422 kts 15°
2026-05-06 21:06 50.12724 -1.62993 30062 ft 419 kts 15°
2026-05-06 21:06 50.15497 -1.61651 29550 ft 416 kts 15°
2026-05-06 21:07 50.18245 -1.60317 29083 ft 411 kts 15°
2026-05-06 21:07 50.20968 -1.58993 28624 ft 407 kts 15°
2026-05-06 21:07 50.23662 -1.57681 28138 ft 404 kts 15°
2026-05-06 21:07 50.26329 -1.56380 27705 ft 400 kts 15°
2026-05-06 21:08 50.28978 -1.55088 27256 ft 397 kts 15°
2026-05-06 21:08 50.31602 -1.53805 26814 ft 394 kts 15°
2026-05-06 21:08 50.34214 -1.52527 26360 ft 392 kts 15°
2026-05-06 21:08 50.36811 -1.51254 25907 ft 390 kts 15°
2026-05-06 21:09 50.39393 -1.49987 25459 ft 387 kts 15°
2026-05-06 21:09 50.41958 -1.48727 25012 ft 385 kts 15°
2026-05-06 21:09 50.44502 -1.47476 24546 ft 383 kts 15°
2026-05-06 21:09 50.47040 -1.46227 24100 ft 381 kts 15°
2026-05-06 21:10 50.49530 -1.45000 23649 ft 379 kts 15°
2026-05-06 21:10 50.52044 -1.43759 23135 ft 378 kts 15°
2026-05-06 21:10 50.54451 -1.42282 22678 ft 375 kts 24°
2026-05-06 21:10 50.56757 -1.40392 22221 ft 373 kts 27°
2026-05-06 21:11 50.59019 -1.38444 21774 ft 369 kts 27°
2026-05-06 21:11 50.61266 -1.36503 21323 ft 367 kts 27°
2026-05-06 21:11 50.63496 -1.34578 20878 ft 364 kts 27°
2026-05-06 21:11 50.65623 -1.32745 20455 ft 362 kts 27°
2026-05-06 21:12 50.67827 -1.30844 20014 ft 360 kts 27°
2026-05-06 21:12 50.70006 -1.28964 19563 ft 359 kts 27°
2026-05-06 21:12 50.72189 -1.27079 19123 ft 357 kts 27°
2026-05-06 21:12 50.74366 -1.25198 18679 ft 356 kts 27°
2026-05-06 21:13 50.76534 -1.23323 18240 ft 355 kts 27°
2026-05-06 21:13 50.78646 -1.21313 17753 ft 353 kts 32°
2026-05-06 21:13 50.80676 -1.19160 17309 ft 351 kts 33°
2026-05-06 21:13 50.82695 -1.17018 16889 ft 348 kts 32°
2026-05-06 21:14 50.84704 -1.14907 16454 ft 345 kts 32°
2026-05-06 21:14 50.86702 -1.12823 16021 ft 343 kts 32°
2026-05-06 21:14 50.88695 -1.10751 15586 ft 341 kts 32°
2026-05-06 21:14 50.90676 -1.08694 15146 ft 340 kts 32°
2026-05-06 21:15 50.92641 -1.06654 14719 ft 338 kts 32°
2026-05-06 21:15 50.94608 -1.04613 14298 ft 336 kts 32°
2026-05-06 21:15 50.96558 -1.02588 13890 ft 334 kts 32°
2026-05-06 21:15 50.98492 -1.00577 13405 ft 332 kts 32°
2026-05-06 21:16 51.00374 -0.98469 12983 ft 330 kts 39°
2026-05-06 21:16 51.01995 -0.95901 12677 ft 332 kts 46°
2026-05-06 21:16 51.03550 -0.93144 12357 ft 337 kts 47°
2026-05-06 21:16 51.05108 -0.90356 12046 ft 336 kts 47°
2026-05-06 21:17 51.06656 -0.87587 11745 ft 335 kts 47°
2026-05-06 21:17 51.08192 -0.84842 11488 ft 328 kts 47°
2026-05-06 21:17 51.09678 -0.82184 11284 ft 315 kts 47°
2026-05-06 21:17 51.11112 -0.79621 11068 ft 305 kts 47°
2026-05-06 21:18 51.12485 -0.77164 10787 ft 295 kts 47°
2026-05-06 21:18 51.13816 -0.74782 10542 ft 290 kts 47°
2026-05-06 21:18 51.15142 -0.72407 10227 ft 287 kts 47°
2026-05-06 21:18 51.16483 -0.70006 10018 ft 290 kts 47°
2026-05-06 21:19 51.17820 -0.67611 9534 ft 289 kts 46°
2026-05-06 21:19 51.19149 -0.65230 9189 ft 286 kts 47°
2026-05-06 21:19 51.20464 -0.62863 8917 ft 285 kts 47°
2026-05-06 21:19 51.21772 -0.60506 8660 ft 282 kts 47°
2026-05-06 21:20 51.23047 -0.58207 8490 ft 271 kts 47°
2026-05-06 21:20 51.24271 -0.55997 8329 ft 261 kts 47°
2026-05-06 21:20 51.25455 -0.53858 8080 ft 254 kts 47°
2026-05-06 21:20 51.26612 -0.51770 7827 ft 248 kts 47°
2026-05-06 21:21 51.27746 -0.49721 7573 ft 244 kts 47°
2026-05-06 21:21 51.28868 -0.47692 7319 ft 243 kts 47°
2026-05-06 21:21 51.29984 -0.45673 7075 ft 242 kts 47°
2026-05-06 21:21 51.31215 -0.43863 7009 ft 241 kts 31°
2026-05-06 21:22 51.32777 -0.43053 7005 ft 237 kts
2026-05-06 21:22 51.34355 -0.43620 7034 ft 234 kts 331°
2026-05-06 21:22 51.35536 -0.45373 7034 ft 234 kts 302°
2026-05-06 21:22 51.36020 -0.47844 7025 ft 236 kts 273°
2026-05-06 21:23 51.35895 -0.50470 7021 ft 238 kts 263°
2026-05-06 21:23 51.35638 -0.53089 7021 ft 239 kts 262°
2026-05-06 21:23 51.35379 -0.55712 6946 ft 239 kts 263°
2026-05-06 21:23 51.35126 -0.58343 6637 ft 239 kts 263°
2026-05-06 21:24 51.34881 -0.60964 6317 ft 237 kts 263°
2026-05-06 21:24 51.34661 -0.63434 6078 ft 236 kts 264°
2026-05-06 21:24 51.34691 -0.65936 5879 ft 234 kts 281°
2026-05-06 21:24 51.35068 -0.68457 5425 ft 231 kts 287°
2026-05-06 21:25 51.35516 -0.70928 4784 ft 233 kts 287°
2026-05-06 21:25 51.36045 -0.73375 4136 ft 232 kts 297°
2026-05-06 21:25 51.37040 -0.75295 3797 ft 218 kts 326°
2026-05-06 21:25 51.38359 -0.76300 3519 ft 206 kts 342°
2026-05-06 21:26 51.39700 -0.76974 3317 ft 201 kts 344°
2026-05-06 21:26 51.41108 -0.77647 3280 ft 219 kts 344°
2026-05-06 21:26 51.42593 -0.78262 3210 ft 221 kts 351°
2026-05-06 21:26 51.44107 -0.78229 2809 ft 220 kts 13°
2026-05-06 21:27 51.45511 -0.77289 2521 ft 219 kts 30°
2026-05-06 21:27 51.46785 -0.75950 2461 ft 220 kts 43°
2026-05-06 21:27 51.47543 -0.73838 2481 ft 221 kts 69°
2026-05-06 21:27 51.47762 -0.71400 2491 ft 221 kts 89°
2026-05-06 21:28 51.47691 -0.69011 2500 ft 205 kts 91°
2026-05-06 21:28 51.47665 -0.66832 2437 ft 188 kts 86°
2026-05-06 21:28 51.47693 -0.64794 2194 ft 183 kts 86°
2026-05-06 21:28 51.47697 -0.62752 1930 ft 178 kts 87°
2026-05-06 21:29 51.47701 -0.60860 1692 ft 165 kts 86°
2026-05-06 21:29 51.47708 -0.59098 1453 ft 152 kts 87°
2026-05-06 21:29 51.47714 -0.57462 1257 ft 141 kts 86°
2026-05-06 21:29 51.47723 -0.55929 1049 ft 134 kts 86°
2026-05-06 21:30 51.47727 -0.54461 846 ft 131 kts 87°
2026-05-06 21:30 51.47728 -0.53004 681 ft 130 kts 87°
2026-05-06 21:30 51.47746 -0.51557 521 ft 130 kts 87°
2026-05-06 21:30 51.47749 -0.50117 316 ft 128 kts 87°
2026-05-06 21:31 51.47751 -0.48685 167 ft 130 kts 87°
2026-05-06 21:31 51.47758 -0.47260 94 ft 116 kts 90°
2026-05-06 21:31 51.47757 -0.46423 98 ft 43 kts 89°
2026-05-06 21:31 51.47751 -0.46237 96 ft 10 kts 110°
2026-05-06 21:32 51.47694 -0.46141 97 ft 14 kts 144°
2026-05-06 21:32 51.47599 -0.46091 96 ft 7 kts 256°
2026-05-06 21:32 51.47594 -0.46247 96 ft 16 kts 269°
2026-05-06 21:33 51.47592 -0.46448 95 ft 20 kts 269°
2026-05-06 21:33 51.47590 -0.46682 93 ft 22 kts 269°
2026-05-06 21:33 51.47584 -0.46946 96 ft 25 kts 266°
2026-05-06 21:33 51.47580 -0.47228 96 ft 19 kts 270°
2026-05-06 21:34 51.47562 -0.47332 97 ft 10 kts 223°
2026-05-06 21:34 51.47487 -0.47355 96 ft 13 kts 179°
2026-05-06 21:34 51.47380 -0.47353 92 ft 17 kts 179°
2026-05-06 21:34 51.47250 -0.47352 96 ft 20 kts 180°
2026-05-06 21:35 51.47137 -0.47352 92 ft 12 kts 180°
2026-05-06 21:35 51.47093 -0.47352 92 ft 8 kts 180°
2026-05-06 21:35 51.47020 -0.47351 92 ft 9 kts 179°
2026-05-06 21:35 51.46987 -0.47383 94 ft 6 kts 243°
2026-05-06 21:36 51.46983 -0.47441 95 ft 0 kts 268°
2026-05-06 21:36 51.46982 -0.47470 95 ft 3 kts 268°
2026-05-06 21:36 51.46982 -0.47497 95 ft 0 kts 268°